Location: Muenchen
(48.1800°N, 11.5800°E)
Time: 05:29:35
(UTC+01:00)

Tiros 1 - Visible Passes

Search period start: 05 December 2016 00:00
Search period end: 15 December 2016 00:00
Orbit: 631 x 664 km, 48.4° (Epoch: 04 December)

Date Brightness Start Highest point End Pass type
(mag) Time Alt. Az. Time Alt. Az. Time Alt. Az.
05 Dec 7.3 17:41:00 10° WSW 17:45:37 63° SSE 17:48:34 22° E visible
05 Dec 8.2 19:23:08 10° W 19:26:14 42° W 19:26:14 42° W visible
06 Dec 7.0 18:07:11 10° WSW 18:11:52 84° S 18:13:42 37° E visible
06 Dec 9.2 19:49:29 10° W 19:51:23 24° W 19:51:23 24° W visible
07 Dec 7.5 16:51:25 10° WSW 16:56:01 61° SSE 17:00:36 10° E visible
07 Dec 7.0 18:33:31 10° W 18:38:12 86° N 18:38:50 66° E visible
07 Dec 10.0 20:15:47 10° W 20:16:31 14° W 20:16:31 14° W visible
08 Dec 7.2 17:17:34 10° WSW 17:22:15 83° SSE 17:26:19 14° E visible
08 Dec 7.3 18:59:51 10° W 19:04:00 70° W 19:04:00 70° W visible
09 Dec 7.1 17:43:53 10° W 17:48:35 87° N 17:51:30 23° E visible
09 Dec 8.4 19:26:09 10° W 19:29:11 39° W 19:29:11 39° W visible
10 Dec 7.0 18:10:13 10° W 18:14:54 90° SSW 18:16:44 37° E visible
10 Dec 9.3 19:52:31 10° W 19:54:25 23° W 19:54:25 23° W visible
11 Dec 7.2 16:54:15 10° W 16:58:57 87° N 17:03:38 10° E visible
11 Dec 7.2 18:36:32 10° W 18:41:11 72° SSW 18:42:01 56° SE visible
11 Dec 10.1 20:19:04 10° W 20:19:43 13° W 20:19:43 13° W visible
12 Dec 7.1 17:20:35 10° W 17:25:17 89° NNE 17:29:43 11° E visible
12 Dec 7.8 19:02:52 10° W 19:07:21 48° SSW 19:07:24 48° SSW visible
13 Dec 7.3 17:46:53 10° W 17:51:34 74° SSW 17:55:13 16° ESE visible
13 Dec 8.9 19:29:24 10° W 19:32:55 27° SW 19:32:55 27° SW visible
14 Dec 7.9 18:13:14 10° W 18:17:45 50° SSW 18:20:51 19° SE visible
14 Dec 9.8 19:56:34 10° WSW 19:58:34 15° SW 19:58:34 15° SW visible
